BON310 FMEE-FAOR

Flight info

Callsign BON310
Flight time N/A
Altitude 34000
Route GERAG2J GERAG UG653 TU/N0469F360 UG653 SUNIR UT444 ETIVI DCT IMKAN UT446 IBGUB
Aircraft B38M/M-SDE1FGHILORVWXY/HB1

Departure

Time 2026-04-29 17:35
Airport Roland Garros Airport (FMEE)

Arrival

Time N/A
Airport O.R. Tambo International Airport (FAOR)
Time Latitude Longitude Altitude Speed Heading
2026-04-29 17:13 -20.89027 55.51099 77 ft 0 kts 206°
2026-04-29 17:24 -20.89036 55.51093 67 ft 0 kts 206°
2026-04-29 17:26 -20.89028 55.51097 66 ft 4 kts 206°
2026-04-29 17:26 -20.89004 55.51110 73 ft 4 kts 206°
2026-04-29 17:26 -20.88980 55.51123 75 ft 3 kts 206°
2026-04-29 17:27 -20.88960 55.51131 73 ft 4 kts 184°
2026-04-29 17:27 -20.88938 55.51124 69 ft 4 kts 130°
2026-04-29 17:27 -20.88925 55.51101 67 ft 4 kts 116°
2026-04-29 17:27 -20.88919 55.51088 66 ft 0 kts 116°
2026-04-29 17:31 -20.88921 55.51092 66 ft 2 kts 116°
2026-04-29 17:31 -20.88941 55.51135 71 ft 11 kts 112°
2026-04-29 17:32 -20.88874 55.51164 75 ft 18 kts 338°
2026-04-29 17:32 -20.88753 55.51104 61 ft 16 kts 313°
2026-04-29 17:32 -20.88706 55.50989 56 ft 18 kts 283°
2026-04-29 17:32 -20.88677 55.50846 55 ft 21 kts 283°
2026-04-29 17:33 -20.88645 55.50688 54 ft 22 kts 282°
2026-04-29 17:33 -20.88596 55.50537 52 ft 15 kts 304°
2026-04-29 17:33 -20.88606 55.50506 54 ft 1 kts 144°
2026-04-29 17:33 -20.88610 55.50521 52 ft 5 kts 100°
2026-04-29 17:34 -20.88638 55.50667 57 ft 51 kts 102°
2026-04-29 17:34 -20.88768 55.51299 58 ft 121 kts 102°
2026-04-29 17:34 -20.89002 55.52390 99 ft 173 kts 104°
2026-04-29 17:34 -20.89270 55.53713 643 ft 188 kts 101°
2026-04-29 17:35 -20.89370 55.55602 1678 ft 196 kts 81°
2026-04-29 17:35 -20.88313 55.57976 2431 ft 232 kts 56°
2026-04-29 17:35 -20.87465 55.59519 3080 ft 245 kts 62°
2026-04-29 17:36 -20.86622 55.61163 3784 ft 260 kts 62°
2026-04-29 17:36 -20.86059 55.63028 4463 ft 268 kts 91°
2026-04-29 17:36 -20.86441 55.64948 5424 ft 268 kts 115°
2026-04-29 17:36 -20.87479 55.66627 6209 ft 273 kts 130°
2026-04-29 17:37 -20.88682 55.68219 7035 ft 278 kts 129°
2026-04-29 17:37 -20.89894 55.69854 7815 ft 282 kts 128°
2026-04-29 17:37 -20.91117 55.71513 8613 ft 286 kts 128°
2026-04-29 17:37 -20.92359 55.73200 9402 ft 291 kts 128°
2026-04-29 17:38 -20.93701 55.74788 10140 ft 294 kts 144°
2026-04-29 17:38 -20.95487 55.75940 10611 ft 308 kts 150°
2026-04-29 17:38 -20.97411 55.77116 10889 ft 329 kts 150°
2026-04-29 17:38 -20.99454 55.78357 11220 ft 344 kts 150°
2026-04-29 17:39 -21.01573 55.79640 11701 ft 353 kts 150°
2026-04-29 17:39 -21.03714 55.80933 12435 ft 355 kts 150°
2026-04-29 17:39 -21.05876 55.82239 13042 ft 359 kts 150°
2026-04-29 17:39 -21.08065 55.83561 13679 ft 362 kts 150°
2026-04-29 17:40 -21.10269 55.84892 14248 ft 366 kts 150°
2026-04-29 17:40 -21.12490 55.86233 14837 ft 367 kts 151°
2026-04-29 17:40 -21.14717 55.87579 15404 ft 368 kts 151°
2026-04-29 17:40 -21.16954 55.88931 15960 ft 370 kts 152°
2026-04-29 17:41 -21.19201 55.90291 16503 ft 371 kts 152°
2026-04-29 17:41 -21.21456 55.91647 17033 ft 373 kts 154°
2026-04-29 17:41 -21.23893 55.92555 17550 ft 371 kts 172°
2026-04-29 17:41 -21.26460 55.92623 18027 ft 371 kts 188°
2026-04-29 17:42 -21.28939 55.91864 18482 ft 373 kts 205°
2026-04-29 17:42 -21.31133 55.90378 18848 ft 377 kts 220°
2026-04-29 17:42 -21.32898 55.88280 19198 ft 382 kts 232°
2026-04-29 17:42 -21.34458 55.85961 19540 ft 386 kts 233°
2026-04-29 17:43 -21.35985 55.83579 19899 ft 389 kts 234°
2026-04-29 17:43 -21.37494 55.81158 20254 ft 392 kts 235°
2026-04-29 17:43 -21.39001 55.78706 20612 ft 394 kts 236°
2026-04-29 17:43 -21.40501 55.76241 20991 ft 397 kts 236°
2026-04-29 17:44 -21.42014 55.73740 21305 ft 400 kts 236°
2026-04-29 17:44 -21.43535 55.71224 21670 ft 403 kts 236°
2026-04-29 17:44 -21.45064 55.68690 22013 ft 406 kts 236°
2026-04-29 17:44 -21.46499 55.66072 22338 ft 410 kts 246°
2026-04-29 17:45 -21.47266 55.63124 22699 ft 413 kts 263°
2026-04-29 17:45 -21.47237 55.60038 22995 ft 417 kts 278°
2026-04-29 17:45 -21.46742 55.56957 23336 ft 420 kts 279°
2026-04-29 17:45 -21.46390 55.54913 23551 ft 422 kts 280°
2026-04-29 17:46 -21.45834 55.51812 23847 ft 424 kts 280°
2026-04-29 17:46 -21.45257 55.48701 24161 ft 425 kts 280°
2026-04-29 17:46 -21.44670 55.45587 24482 ft 426 kts 280°
2026-04-29 17:46 -21.44077 55.42466 24794 ft 427 kts 280°
2026-04-29 17:47 -21.43480 55.39333 25105 ft 428 kts 279°
2026-04-29 17:47 -21.43272 55.36166 25405 ft 425 kts 263°
2026-04-29 17:47 -21.43620 55.33012 25701 ft 426 kts 261°
2026-04-29 17:47 -21.43981 55.29850 25983 ft 428 kts 261°
2026-04-29 17:48 -21.44360 55.26679 26313 ft 428 kts 261°
2026-04-29 17:48 -21.44752 55.23508 26618 ft 429 kts 260°
2026-04-29 17:48 -21.45149 55.20332 26916 ft 430 kts 260°
2026-04-29 17:48 -21.45547 55.17152 27224 ft 431 kts 260°
2026-04-29 17:49 -21.45946 55.13959 27518 ft 432 kts 260°
2026-04-29 17:49 -21.46346 55.10762 27813 ft 432 kts 259°
2026-04-29 17:49 -21.46745 55.07560 28110 ft 433 kts 259°
2026-04-29 17:49 -21.47145 55.04354 28397 ft 434 kts 259°
2026-04-29 17:50 -21.47544 55.01138 28716 ft 434 kts 259°
2026-04-29 17:50 -21.47943 54.97931 29029 ft 434 kts 259°
2026-04-29 17:50 -21.48341 54.94715 29298 ft 435 kts 259°
2026-04-29 17:50 -21.48740 54.91496 29559 ft 436 kts 259°
2026-04-29 17:51 -21.49139 54.88270 29816 ft 437 kts 259°
2026-04-29 17:51 -21.49537 54.85037 30072 ft 437 kts 259°
2026-04-29 17:51 -21.49936 54.81796 30285 ft 438 kts 259°
2026-04-29 17:51 -21.50335 54.78549 30463 ft 440 kts 259°
2026-04-29 17:52 -21.50735 54.75290 30636 ft 441 kts 259°
2026-04-29 17:52 -21.51001 54.73122 30753 ft 442 kts 259°
2026-04-29 17:52 -21.51538 54.68733 30999 ft 444 kts 259°
2026-04-29 17:52 -21.51934 54.65493 31228 ft 443 kts 259°
2026-04-29 17:53 -21.52339 54.62168 31474 ft 443 kts 260°
2026-04-29 17:53 -21.52734 54.58930 31706 ft 443 kts 260°
2026-04-29 17:53 -21.53132 54.55651 31957 ft 443 kts 260°
2026-04-29 17:53 -21.53530 54.52375 32201 ft 442 kts 260°
2026-04-29 17:54 -21.53926 54.49106 32439 ft 442 kts 261°
2026-04-29 17:54 -21.54321 54.45835 32674 ft 442 kts 261°
2026-04-29 17:54 -21.54716 54.42564 32921 ft 441 kts 261°
2026-04-29 17:54 -21.55110 54.39298 33145 ft 441 kts 261°
2026-04-29 17:55 -21.55503 54.36035 33394 ft 440 kts 261°
2026-04-29 17:55 -21.55895 54.32772 33634 ft 440 kts 261°
2026-04-29 17:55 -21.56285 54.29517 33873 ft 439 kts 261°
2026-04-29 17:55 -21.56675 54.26261 34056 ft 439 kts 262°
2026-04-29 17:56 -21.57063 54.23017 34046 ft 437 kts 262°
2026-04-29 17:56 -21.57834 54.16558 34060 ft 436 kts 262°
2026-04-29 17:57 -21.58602 54.10094 34054 ft 436 kts 262°
2026-04-29 17:57 -21.59368 54.03633 34057 ft 436 kts 262°
2026-04-29 17:58 -21.60131 53.97160 34056 ft 436 kts 262°
2026-04-29 17:58 -21.60893 53.90689 34056 ft 437 kts 262°
2026-04-29 17:59 -21.61652 53.84216 34057 ft 437 kts 262°
2026-04-29 17:59 -21.62408 53.77746 34056 ft 437 kts 262°
2026-04-29 18:00 -21.63162 53.71270 34053 ft 437 kts 262°
2026-04-29 18:00 -21.63915 53.64789 34059 ft 437 kts 262°
2026-04-29 18:01 -21.64664 53.58305 34060 ft 437 kts 262°
2026-04-29 18:01 -21.65411 53.51826 34058 ft 436 kts 262°
2026-04-29 18:02 -21.66148 53.45414 34057 ft 435 kts 262°
2026-04-29 18:02 -21.66888 53.38950 34055 ft 435 kts 262°
2026-04-29 18:03 -21.67626 53.32489 34056 ft 435 kts 262°
2026-04-29 18:03 -21.68362 53.26025 34056 ft 436 kts 262°
2026-04-29 18:04 -21.69002 53.19549 34049 ft 437 kts 270°
2026-04-29 18:04 -21.68600 53.16405 34052 ft 438 kts 284°
2026-04-29 18:04 -21.67394 53.13380 34066 ft 445 kts 298°
2026-04-29 18:05 -21.63668 53.08006 34055 ft 451 kts 304°
2026-04-29 18:05 -21.59749 53.02753 34059 ft 451 kts 306°
2026-04-29 18:06 -21.55784 52.97534 34058 ft 451 kts 305°
2026-04-29 18:06 -21.54101 52.94736 34038 ft 443 kts 291°
2026-04-29 18:06 -21.53178 52.91615 34059 ft 437 kts 278°
2026-04-29 18:06 -21.53004 52.88371 34046 ft 435 kts 263°
2026-04-29 18:07 -21.53467 52.85170 34071 ft 435 kts 258°
2026-04-29 18:07 -21.54744 52.78804 34059 ft 436 kts 256°
2026-04-29 18:08 -21.56172 52.72471 34061 ft 436 kts 256°
2026-04-29 18:08 -21.57640 52.66146 34062 ft 436 kts 256°
2026-04-29 18:09 -21.59114 52.59819 34061 ft 436 kts 256°
2026-04-29 18:09 -21.60585 52.53494 34059 ft 437 kts 256°
2026-04-29 18:10 -21.62047 52.47201 34059 ft 437 kts 256°
2026-04-29 18:10 -21.63514 52.40869 34063 ft 436 kts 256°
2026-04-29 18:11 -21.64975 52.34553 34064 ft 435 kts 256°
2026-04-29 18:11 -21.66434 52.28239 34061 ft 435 kts 256°
2026-04-29 18:12 -21.67891 52.21914 34060 ft 436 kts 256°
2026-04-29 18:12 -21.69349 52.15580 34061 ft 436 kts 256°
2026-04-29 18:13 -21.70803 52.09246 34066 ft 436 kts 256°
2026-04-29 18:13 -21.72255 52.02913 34063 ft 436 kts 256°
2026-04-29 18:14 -21.73705 51.96571 34069 ft 437 kts 256°
2026-04-29 18:14 -21.75154 51.90230 34076 ft 436 kts 256°
2026-04-29 18:15 -21.76592 51.83918 34065 ft 434 kts 256°
2026-04-29 18:15 -21.78028 51.77608 34068 ft 435 kts 256°
2026-04-29 18:16 -21.79463 51.71289 34072 ft 435 kts 256°
2026-04-29 18:16 -21.80897 51.64965 34071 ft 435 kts 256°
2026-04-29 18:17 -21.82328 51.58640 34067 ft 435 kts 256°
2026-04-29 18:17 -21.83758 51.52312 34069 ft 435 kts 256°
2026-04-29 18:18 -21.85183 51.45977 34073 ft 435 kts 256°
2026-04-29 18:18 -21.86608 51.39637 34084 ft 435 kts 256°
2026-04-29 18:19 -21.88024 51.33323 34072 ft 433 kts 256°
2026-04-29 18:19 -21.89439 51.27004 34074 ft 434 kts 256°
2026-04-29 18:20 -21.90852 51.20682 34075 ft 434 kts 256°
2026-04-29 18:20 -21.92262 51.14359 34073 ft 434 kts 256°
2026-04-29 18:21 -21.93670 51.08034 34075 ft 434 kts 256°
2026-04-29 18:21 -21.95076 51.01706 34075 ft 434 kts 257°
2026-04-29 18:22 -21.96478 50.95384 34073 ft 434 kts 256°
2026-04-29 18:22 -21.97878 50.89059 34086 ft 434 kts 257°
2026-04-29 18:23 -21.99271 50.82751 34074 ft 432 kts 257°
2026-04-29 18:23 -22.00652 50.76489 34075 ft 433 kts 257°
2026-04-29 18:24 -22.02041 50.70180 34075 ft 433 kts 257°
2026-04-29 18:24 -22.03426 50.63875 34065 ft 432 kts 257°
2026-04-29 18:25 -22.04811 50.57555 34078 ft 434 kts 257°
2026-04-29 18:25 -22.06194 50.51232 34074 ft 433 kts 257°
2026-04-29 18:26 -22.07576 50.44906 34071 ft 433 kts 257°
2026-04-29 18:26 -22.08954 50.38581 34075 ft 434 kts 257°
2026-04-29 18:27 -22.10332 50.32246 34072 ft 434 kts 257°
2026-04-29 18:27 -22.11707 50.25910 34078 ft 434 kts 257°
2026-04-29 18:28 -22.13081 50.19572 34082 ft 434 kts 257°
2026-04-29 18:28 -22.14453 50.13227 34082 ft 435 kts 257°
2026-04-29 18:29 -22.15823 50.06876 34078 ft 435 kts 257°
2026-04-29 18:29 -22.17191 50.00522 34075 ft 435 kts 257°
2026-04-29 18:30 -22.18557 49.94170 34077 ft 435 kts 257°
2026-04-29 18:30 -22.19920 49.87813 34091 ft 433 kts 257°
2026-04-29 18:31 -22.21044 49.82564 34087 ft 431 kts 257°